Location: Cold Norton
(51.6667°N, 0.6667°E)
Time: 06:09:47
(UTC+00:00)

ATLAS CENTAUR R/B - Pass Details

Date: 18 November 2025
Orbit: 342 x 420 km, 64.6° (Epoch: 12 December)

Event Time Altitude Azimuth Distance (km) Brightness Sun altitude
Rises 17:22:32 0° 267° (W) 2,437 6.4 -12.1°
Maximum altitude 17:27:38 19° 333° (NNW) 1,141 3.1 -12.9°
Drops below altitude 10° 17:30:12 10° 20° (NNE) 1,568 3.3 -13.2°
Enters shadow 17:30:15 10° 21° (NNE) 1,585 3.3 -13.2°
